Location: Dalton
(42.4737°N, 73.1662°W)
Time: 13:26:15
(UTC+00:00)

ACS3 Solar Sail - Visible Passes

Search period start: 20 September 2024 00:00
Search period end: 30 September 2024 00:00
Orbit: 970 x 1036 km, 97.4° (Epoch: 19 September)

Date Brightness Start Highest point End Pass type
(mag) Time Alt. Az. Time Alt. Az. Time Alt. Az.
20 Sep 2.0 01:16:10 35° S 01:19:05 76° WSW 01:25:33 10° NNW visible
20 Sep 4.4 03:02:12 10° W 03:04:05 11° W 03:05:59 10° WNW visible
21 Sep 2.6 00:04:18 18° ESE 00:08:17 34° ENE 00:13:56 10° N visible
21 Sep 2.9 01:49:33 30° SW 01:52:07 42° W 01:58:11 10° NNW visible
22 Sep 1.9 00:37:38 29° SE 00:40:53 59° ENE 00:47:11 10° N visible
22 Sep 3.7 02:22:53 19° WSW 02:25:16 23° W 02:30:16 10° NW visible
22 Sep 3.3 23:26:10 10° ESE 23:30:23 19° ENE 23:34:36 10° NNE visible
23 Sep 1.9 01:10:55 38° S 01:13:37 80° WSW 01:20:04 10° NNW visible
23 Sep 4.4 02:56:12 10° WSW 02:58:32 12° W 03:00:53 10° WNW visible
23 Sep 2.6 23:58:55 18° ESE 00:02:42 32° ENE 00:08:14 10° N visible
24 Sep 2.8 01:44:10 33° SW 01:46:28 45° W 01:52:35 10° NNW visible
25 Sep 2.0 00:32:06 30° SE 00:35:08 56° ENE 00:41:22 10° N visible
25 Sep 3.7 02:17:20 21° WSW 02:19:26 25° W 02:24:34 10° NW visible
25 Sep 3.3 23:20:30 10° E 23:24:32 18° ENE 23:28:32 10° NNE visible
26 Sep 1.8 01:05:14 41° S 01:07:42 84° WSW 01:14:07 10° NNW visible
26 Sep 4.3 02:50:28 11° WSW 02:52:33 13° W 02:55:19 10° WNW visible
26 Sep 2.7 23:53:06 18° ESE 23:56:41 30° ENE 00:02:05 10° N visible
27 Sep 2.7 01:38:19 36° SW 01:40:23 48° W 01:46:32 10° NNW visible
28 Sep 2.0 00:26:08 31° SE 00:28:57 53° ENE 00:35:06 10° N visible
28 Sep 3.6 02:11:21 23° WSW 02:13:11 26° W 02:18:26 10° NW visible
28 Sep 3.4 23:14:28 10° E 23:18:14 17° ENE 23:21:59 10° NNE visible
29 Sep 1.8 00:59:07 45° SSE 01:01:20 89° WSW 01:07:44 10° NNW visible
29 Sep 4.2 02:44:20 13° WSW 02:46:06 14° W 02:49:17 10° NW visible
29 Sep 2.8 23:46:51 18° ESE 23:50:13 28° ENE 23:55:29 10° N visible
